星链-1094 (STARLINK-1094 )

导读 | 星芒AI

STARLINK-1094 是 SpaceX Starlink 卫星互联网项目中的第1094颗卫星,属于低轨卫星群,旨在为全球用户提供高速互联网服务。该卫星于2021年发射,运行在约550公里高的近地轨道,具备先进的通信技术和自动避撞功能。Starlink 项目通过部署大量卫星,构建覆盖全球的宽带网络,尤其服务于偏远地区。STARLINK-1094 在提升网络连接性和减少数字鸿沟方面发挥着重要作用。

基本信息
目录编号:
44941
目录名称:
STARLINK-1094
国际标识:
2020-001AD
轨道中心:
EARTH
卫星名称:
星链-1094
卫星全名:
星链-1094 (STARLINK-1094 )
卫星状态:
在轨 (已飞行2167 天)
发射日期:
2020-01-07 UTC
国别 :
美国 (US)
星等 :
--
轨道信息
数据来源 国际轨道数据
星历时间: 2025-12-13T08:30:04+0800
9小时前
查看轨道信息
半长轴: 6925.354km
偏心率: 0.0001855
轨道倾角: 53.056°
近地点辐角 83.036°
升交点赤经 355.693°
平近点角 277.084°
近地点: 545.934km
远地点: 548.504km
周期: 95.592分钟
每日圈数: 15.063985
详细信息
固有亮度:
5
最大亮度:
2.5
卫星平台:
Starlink V1.0
覆盖范围:
全球
运营商:
太空探索技术公司
运营商所在国:
美国
制造商(研发单位):
太空探索技术公司
制造商所在国:
美国
使用方式:
暂无
卫星简介
星链(Starlink)计划是由太空探索技术公司(SpaceX)提出的一个巨型低轨卫星互联网星座项目,计划在2019年至2024年间在太空搭建由约1.2万颗卫星组成的“星链”网络,其中1584颗将部署在地球上空550千米处的近地轨道,并从2020年开始工作。该卫星仍在工作。
2D轨道图
3D轨道图
轨道高度分析图
轨道倾角分析图
轨道综合分析图
查看轨道综合分析图